カタログに戻る

CZ-6A DEB

運用中PO
NORAD 54922·DEBRIS·🇨🇳 China

打ち上げ Nov 11, 2022 から Taiyuan Satellite Launch Center

Loading…

次のパス (今後24時間)

TLE

最新Source: Space-Track

元期: Sep 13, 2026, 18:15 UTC

1 54922U 22151RK  26256.76077117  .00353891  00000-0  66210-2 0  9996
2 54922  98.6106 358.1615 0020988 265.1791  94.7059 15.47179614201823

AllMySatでCZ-6A DEBをリアルタイム追跡

Download on the App Store